DW4915 Mazarete ES current weather conditions

sailwx.info

Wind from 256

Air temperature 3.3° C
Dewpoint 1.9° C

Last reported at 2015-May-06 00:51 UTC.
Time now 2015-May-06 01:22 UTC

Location: N 40°58' W 002°11'.
View on Google Maps.

See reports from other nearby stations

  
Tides and Currents Weather Stations Pressure Air Temp Water Temp Dewpoint Dewpoint Depression Visibility Wind Speed Wind Dir Waves Ship Positions
date/time (UTC)wind fromknots sea level pressurealtimeterstation pressurevisibilityair tempwater tempwave heightnotes
2015-May-06 00:51 256 3.3
2015-May-06 00:41 256 2.8
2015-May-06 00:36 257 2.8
2015-May-06 00:26 256 2.8
2015-May-06 00:21 256 2.8
2015-May-06 00:16 256 2.8
2015-May-06 00:06 257 2.2
2015-May-06 00:01 257 2.2
2015-May-05 23:56 255 2.2
2015-May-05 23:46 256 2.2
2015-May-05 23:41 258 2.2
2015-May-05 23:36 257 2.8
2015-May-05 23:26 256 2.8
2015-May-05 23:21 256 2.8
2015-May-05 23:16 256 2.8
2015-May-05 23:06 258 2.8
2015-May-05 23:01 257 2.8
2015-May-05 22:56 256 2.8
2015-May-05 22:46 258 2.8
2015-May-05 22:41 257 3.3
2015-May-05 22:31 256 3.9
2015-May-05 22:26 256 3.9
2015-May-05 22:21 256 3.9
2015-May-05 22:11 256 3.9
2015-May-05 22:06 256 4.4
2015-May-05 22:01 256 4.4
2015-May-05 21:56 256 4.4
2015-May-05 21:46 256 5.6
2015-May-05 21:41 256 6.1
2015-May-05 21:36 257 6.7
2015-May-05 21:26 257 7.2
2015-May-05 21:21 257 7.8
2015-May-05 21:11 257 8.3
2015-May-05 21:06 255 8.9
2015-May-05 21:01 256 8.9
2015-May-05 20:56 256 9.4
2015-May-05 20:51 256 9.4
2015-May-05 20:46 257 9.4
2015-May-05 20:36 256 8.9
2015-May-05 20:31 256 8.9
2015-May-05 20:21 256 8.3
2015-May-05 20:16 256 8.3
2015-May-05 20:06 257 7.8
2015-May-05 20:01 256 8.3
2015-May-05 19:56 256 8.3
2015-May-05 19:46 256 10.0
2015-May-05 19:41 255 10.6
2015-May-05 19:36 256 11.1
2015-May-05 19:31 257 12.2
2015-May-05 19:21 256 12.8
2015-May-05 19:11 256 12.8
2015-May-05 19:06 256 13.3
2015-May-05 19:01 257 13.3
2015-May-05 18:51 261 13.3
2015-May-05 18:46 246 13.9
2015-May-05 18:41 244 13.9
2015-May-05 18:31 236 14.4
2015-May-05 18:26 236 14.4
2015-May-05 18:21 246 14.4
2015-May-05 18:16 246 14.4
2015-May-05 18:11 221 14.4
2015-May-05 18:06 248 14.4
2015-May-05 17:56 244 15.0
2015-May-05 17:51 262 15.6
2015-May-05 17:41 275 16.1
2015-May-05 17:36 230 16.1
2015-May-05 17:31 236 16.1
2015-May-05 17:21 264 15.0
2015-May-05 17:16 250 16.1
2015-May-05 17:06 262 16.7
2015-May-05 17:01 221 16.7
2015-May-05 16:56 254 16.7
2015-May-05 16:46 247 16.7
2015-May-05 16:41 185 16.7
2015-May-05 16:36 205 16.7
2015-May-05 16:26 216 15.6
2015-May-05 16:21 245 16.1
2015-May-05 16:16 244 16.7
2015-May-05 16:11 242 16.7
2015-May-05 16:06 264 17.2
2015-May-05 16:01 216 17.2
2015-May-05 15:51 251 16.7
2015-May-05 15:46 196 16.1
2015-May-05 15:36 229 16.7
2015-May-05 15:31 265 16.1
2015-May-05 15:26 236 16.1
2015-May-05 15:21 249 16.1
2015-May-05 15:11 267 17.8
2015-May-05 15:06 266 17.2
2015-May-05 14:56 227 16.7
2015-May-05 14:51 221 17.2
2015-May-05 14:46 251 16.7
2015-May-05 14:36 279 17.2
2015-May-05 14:31 258 17.2
2015-May-05 14:26 238 17.2
2015-May-05 14:16 225 17.2
2015-May-05 14:11 270 17.2
2015-May-05 14:01 285 17.2
2015-May-05 13:56 256 17.2
2015-May-05 13:51 253 17.2
2015-May-05 13:46 252 17.2
2015-May-05 13:36 258 16.7
2015-May-05 13:31 221 16.1
2015-May-05 13:26 232 16.7
2015-May-05 13:16 238 16.7
2015-May-05 13:11 279 16.7
2015-May-05 13:06 280 16.7
2015-May-05 13:01 292 16.7
2015-May-05 12:56 227 16.7
2015-May-05 12:51 267 16.1
2015-May-05 12:41 251 16.1
2015-May-05 12:36 250 16.1
2015-May-05 12:26 261 16.1
2015-May-05 12:21 275 16.1
2015-May-05 12:16 261 15.6
2015-May-05 12:06 233 15.0
2015-May-05 12:01 231 15.0
2015-May-05 11:56 235 15.0
2015-May-05 11:46 235 15.0
2015-May-05 11:41 236 15.0
2015-May-05 11:36 235 14.4
2015-May-05 11:26 247 13.9
2015-May-05 11:21 244 13.9
2015-May-05 11:16 244 13.9
2015-May-05 11:06 253 14.4
2015-May-05 11:01 248 14.4
2015-May-05 10:56 262 13.9
2015-May-05 10:46 261 13.3
2015-May-05 10:41 260 13.3
2015-May-05 10:31 258 12.8
2015-May-05 10:26 255 12.8
2015-May-05 10:21 242 12.2
2015-May-05 10:11 252 12.2
2015-May-05 10:06 262 12.2
2015-May-05 10:01 265 11.7
2015-May-05 09:51 269 11.7
2015-May-05 09:46 272 11.7
2015-May-05 09:41 281 11.1
2015-May-05 09:31 281 10.6
2015-May-05 09:26 280 10.6
2015-May-05 09:21 282 10.0
2015-May-05 09:11 282 10.0
2015-May-05 09:06 265 10.0
2015-May-05 08:56 262 10.6
2015-May-05 08:51 260 10.6
2015-May-05 08:46 262 10.6
2015-May-05 08:41 260 10.6
2015-May-05 08:31 260 10.0
2015-May-05 08:21 263 10.0
2015-May-05 08:16 265 10.0
2015-May-05 08:11 265 10.0
2015-May-05 08:01 263 9.4
2015-May-05 07:56 263 9.4
2015-May-05 07:51 254 9.4
2015-May-05 07:46 243 9.4
2015-May-05 07:36 244 9.4
2015-May-05 07:26 257 8.9
2015-May-05 07:21 258 8.9
2015-May-05 07:16 256 8.9
2015-May-05 07:06 240 8.9
2015-May-05 07:01 235 8.3
2015-May-05 06:56 248 8.3
2015-May-05 06:46 244 8.3
2015-May-05 06:41 254 8.3
2015-May-05 06:31 262 8.3
2015-May-05 06:26 259 8.3
2015-May-05 06:21 249 8.3
2015-May-05 06:11 243 8.3
2015-May-05 06:06 267 8.3
2015-May-05 06:01 256 8.3
2015-May-05 05:51 256 8.3
2015-May-05 05:46 264 8.3
2015-May-05 05:41 248 8.3
2015-May-05 05:31 269 8.3
2015-May-05 05:26 242 8.3
2015-May-05 05:16 244 8.3
2015-May-05 05:11 247 8.3
2015-May-05 05:06 248 8.3
2015-May-05 04:56 256 8.3
2015-May-05 04:51 247 8.3
2015-May-05 04:46 256 8.3
2015-May-05 04:36 242 8.3
2015-May-05 04:31 229 8.3
2015-May-05 04:26 250 8.9
2015-May-05 04:16 253 8.9
2015-May-05 04:11 221 8.9
2015-May-05 04:06 236 8.9
2015-May-05 03:56 282 9.4
2015-May-05 03:51 267 9.4
2015-May-05 03:46 221 9.4
2015-May-05 03:36 250 9.4
2015-May-05 03:31 248 9.4
2015-May-05 03:26 234 9.4
2015-May-05 03:21 242 9.4
2015-May-05 03:16 242 9.4
2015-May-05 03:11 235 9.4
2015-May-05 03:01 262 9.4
2015-May-05 02:56 268 10.0
2015-May-05 02:51 229 10.0
2015-May-05 02:46 269 10.0
2015-May-05 02:36 256 10.6
2015-May-05 02:31 246 10.6
2015-May-05 02:21 261 10.6
2015-May-05 02:16 229 10.6
2015-May-05 02:11 227 10.6
2015-May-05 02:01 255 11.1
2015-May-05 01:56 229 11.1
2015-May-05 01:51 231 11.1
2015-May-05 01:41 248 11.1
2015-May-05 01:36 243 11.1
2015-May-05 01:31 281 11.1
2015-May-05 01:21 216 11.7
2015-May-05 01:16 254 11.7
2015-May-05 01:06 216 11.7
2015-May-05 01:01 268 11.7
2015-May-05 00:56 225 11.7
2015-May-05 00:51 269 12.2
2015-May-05 00:41 230 12.8
2015-May-05 00:36 237 12.8
2015-May-05 00:31 244 12.8
2015-May-05 00:21 253 13.9
2015-May-05 00:16 245 13.9
2015-May-05 00:11 244 14.4
2015-May-05 00:06 216 14.4
2015-May-04 23:56 203 14.4
2015-May-04 23:51 246 14.4
2015-May-04 23:46 253 14.4
2015-May-04 23:41 221 14.4
2015-May-04 23:36 221 14.4
2015-May-04 23:26 239 15.0
2015-May-04 23:21 242 15.0
2015-May-04 23:16 221 15.0
2015-May-04 23:06 202 15.0
2015-May-04 23:01 174 15.0
2015-May-04 22:51 229 15.0
2015-May-04 22:46 253 15.0
2015-May-04 22:41 225 15.6
2015-May-04 22:31 207 15.6
2015-May-04 22:26 216 15.6
2015-May-04 22:21 182 15.6
2015-May-04 22:11 248 15.6
2015-May-04 22:06 263 15.6
2015-May-04 22:01 237 15.6
2015-May-04 21:51 179 16.1
2015-May-04 21:46 176 16.1
2015-May-04 21:41 188 16.1
2015-May-04 21:36 211 16.1
2015-May-04 21:26 229 16.1
2015-May-04 21:21 187 16.1
2015-May-04 21:11 251 16.7
2015-May-04 21:06 173 16.7
2015-May-04 21:01 227 16.7
2015-May-04 20:51 165 16.7
2015-May-04 20:46 221 17.2
2015-May-04 20:41 196 17.2
2015-May-04 20:31 244 17.2
2015-May-04 20:26 245 17.2
2015-May-04 20:21 201 17.8
2015-May-04 20:11 229 17.8
2015-May-04 20:06 180 17.8
2015-May-04 20:01 194 17.8
2015-May-04 19:56 195 17.8
2015-May-04 19:46 299 18.3
2015-May-04 19:41 195 18.3
2015-May-04 19:31 199 18.3
2015-May-04 19:26 242 18.3
2015-May-04 19:21 194 18.3
2015-May-04 19:16 171 18.9
2015-May-04 19:06 199 18.9
2015-May-04 19:01 190 18.9
2015-May-04 18:56 197 18.9
2015-May-04 18:46 202 19.4
2015-May-04 18:41 216 19.4
2015-May-04 18:31 221 20.0
2015-May-04 18:26 206 20.0
2015-May-04 18:21 200 20.0
2015-May-04 18:11 204 20.6
2015-May-04 18:06 216 20.6
2015-May-04 18:01 244 20.6
2015-May-04 17:56 167 21.1
2015-May-04 17:46 225 21.1
2015-May-04 17:41 205 21.1
2015-May-04 17:36 162 21.1
2015-May-04 17:31 187 21.7
2015-May-04 17:26 196 21.7
2015-May-04 17:21 200 21.7
2015-May-04 17:11 194 21.7
2015-May-04 17:06 197 21.7
2015-May-04 17:01 182 21.7
2015-May-04 16:51 198 21.7
2015-May-04 16:46 211 21.7
2015-May-04 16:41 221 21.7
2015-May-04 16:31 236 22.2
2015-May-04 16:26 186 22.2
2015-May-04 16:16 202 22.2
2015-May-04 16:11 191 22.8
2015-May-04 16:06 181 23.3
2015-May-04 15:56 162 23.3
2015-May-04 15:51 205 23.3
2015-May-04 15:46 187 23.3
2015-May-04 15:36 221 23.3
2015-May-04 15:26 197 23.3
2015-May-04 15:21 194 23.9
2015-May-04 15:16 185 23.3
2015-May-04 15:06 175 22.8
2015-May-04 15:01 211 22.8
2015-May-04 14:56 186 22.2
2015-May-04 14:46 207 22.2
2015-May-04 14:36 180 22.8
2015-May-04 14:26 177 22.8
2015-May-04 14:21 216 22.2
2015-May-04 14:16 211 22.8
2015-May-04 14:06 190 22.2
2015-May-04 14:01 191 22.2
2015-May-04 13:56 272 22.8
2015-May-04 13:46 171 22.2
2015-May-04 13:41 181 22.8
2015-May-04 13:36 221 22.8
2015-May-04 13:26 187 22.2
2015-May-04 13:21 211 22.2
2015-May-04 13:11 216 22.2
2015-May-04 13:06 149 21.7
2015-May-04 13:01 202 21.7
2015-May-04 12:51 173 22.2
2015-May-04 12:46 178 22.2
2015-May-04 12:41 176 21.7
2015-May-04 12:31 226 21.1
2015-May-04 12:26 189 21.1
2015-May-04 12:16 182 22.2
2015-May-04 12:11 216 22.2
2015-May-04 12:06 180 22.2
2015-May-04 12:01 225 22.2
2015-May-04 11:51 232 21.7
2015-May-04 11:46 160 21.7
2015-May-04 11:41 153 21.1
2015-May-04 11:31 198 21.7
2015-May-04 11:26 221 21.7
2015-May-04 11:21 181 21.7
2015-May-04 11:11 229 21.1
2015-May-04 11:06 227 21.1
2015-May-04 10:56 241 20.6
2015-May-04 10:51 249 20.6
2015-May-04 10:46 221 20.0
2015-May-04 10:36 244 20.0
2015-May-04 10:31 211 20.0
2015-May-04 10:26 244 20.0
2015-May-04 10:16 216 19.4
2015-May-04 10:11 226 19.4
2015-May-04 10:06 225 19.4
2015-May-04 10:01 240 19.4
2015-May-04 09:56 248 19.4
2015-May-04 09:51 255 20.0
2015-May-04 09:41 205 20.0
2015-May-04 09:36 159 19.4
2015-May-04 09:31 178 19.4
2015-May-04 09:21 247 18.9
2015-May-04 09:16 178 18.9
2015-May-04 09:06 232 18.3
2015-May-04 09:01 180 18.3
2015-May-04 08:56 193 17.8
2015-May-04 08:46 187 17.8
2015-May-04 08:41 193 17.8
2015-May-04 08:31 204 17.8
2015-May-04 08:26 188 17.8
2015-May-04 08:21 196 17.8
2015-May-04 08:11 177 17.2
2015-May-04 08:06 185 17.2
2015-May-04 08:01 183 17.2
2015-May-04 07:56 181 16.7
2015-May-04 07:51 180 16.1
2015-May-04 07:41 171 15.0
2015-May-04 07:36 170 14.4
2015-May-04 07:31 173 13.9
2015-May-04 07:21 171 13.9
2015-May-04 07:16 172 13.3
2015-May-04 07:11 170 13.3
2015-May-04 07:01 169 13.9
2015-May-04 06:56 171 13.9
2015-May-04 06:46 216 13.9
2015-May-04 06:41 188 14.4
2015-May-04 06:36 188 15.0
2015-May-04 06:26 225 13.9
2015-May-04 06:21 242 13.3
2015-May-04 06:16 242 12.2
2015-May-04 06:06 241 11.1
2015-May-04 06:01 243 11.1
2015-May-04 05:56 243 11.1
2015-May-04 05:46 242 10.6
2015-May-04 05:41 242 10.6
2015-May-04 05:36 242 10.6
2015-May-04 05:26 242 11.1
2015-May-04 05:21 243 11.1
2015-May-04 05:11 242 10.6
2015-May-04 05:06 241 10.6
2015-May-04 05:01 244 10.6
2015-May-04 04:51 242 10.6
2015-May-04 04:46 242 10.6
2015-May-04 04:41 243 10.0
2015-May-04 04:36 242 10.0
2015-May-04 04:26 242 10.0
2015-May-04 04:21 242 10.0
2015-May-04 04:11 243 10.0
2015-May-04 04:06 243 10.0
2015-May-04 04:01 242 10.0
2015-May-04 03:56 242 10.0
2015-May-04 03:46 242 10.0
2015-May-04 03:41 242 10.0
2015-May-04 03:31 242 10.6
2015-May-04 03:26 243 11.1
2015-May-04 03:21 242 11.7
2015-May-04 03:11 242 12.2
2015-May-04 03:06 242 12.2
2015-May-04 03:01 242 12.2
2015-May-04 02:51 242 12.2
2015-May-04 02:46 242 12.2
2015-May-04 02:41 242 12.2
2015-May-04 02:31 243 12.2
2015-May-04 02:26 242 12.2
2015-May-04 02:21 242 12.2
2015-May-04 02:11 242 12.2
2015-May-04 02:06 243 12.2
2015-May-04 02:01 242 12.2
2015-May-04 01:51 244 12.2
2015-May-04 01:46 242 12.2
2015-May-04 01:41 242 12.2
2015-May-04 01:36 242 12.2
2015-May-04 01:31 242 11.7
2015-May-04 01:26 242 11.7
2015-May-04 01:16 242 11.7
2015-May-04 01:11 242 11.7
2015-May-04 01:06 242 11.1